Weather History for KCBK - January, 2013

Change the Weather History Date:

Monday, January 28, 2013

  Actual Average (KGLD) Record (KGLD)
Temperature  
Mean Temperature 45 °F 30 °F  
Max Temperature 62 °F 42 °F 69 °F (2013)
Min Temperature 28 °F 17 °F -16 °F (1948)
Degree Days  
Heating Degree Days 20 35  
Month to date heating degree days 982  
Since 1 July heating degree days 3389  
Cooling Degree Days 0 0  
Month to date cooling degree days 0  
Year to date cooling degree days 0  
Moisture  
Dew Point 36 °F    
Average Humidity 91    
Maximum Humidity 100    
Minimum Humidity 45    
Precipitation  
Precipitation 0.00 in 0.02 in 0.11 in (2001)
Month to date precipitation 0.34  
Year to date precipitation 0.34  
Snow  
Snow 0.00 in 0.20 in - ()
Month to date snowfall 5.3  
Since 1 July snowfall 18.0  
Snow Depth -    
Sea Level Pressure  
Sea Level Pressure 29.66 in    
Wind  
Wind Speed 8 mph (South)    
Max Wind Speed 22 mph    
Max Gust Speed 30 mph    
Visibility 4 miles    
Events Fog , Rain , Snow    
T = Trace of Precipitation, MM = Missing Value Source: NWS Daily Summary

Daily Weather History Graph

Daily Weather History Graph

Search for Another Location

Airport or City:

Trip Planner

Search our weather history database for the weather conditions in past years. The results will help you decide how hot, cold, wet, or windy it might be!

Date:

Astronomy

Jan. 28, 2013 Rise Set
Actual Time 7:54 AM CST 6:00 PM CST
Civil Twilight 7:26 AM CST 6:28 PM CST
Nautical Twilight 6:53 AM CST 7:01 PM CST
Astronomical Twilight 6:22 AM CST 7:32 PM CST
Moon 7:56 PM CST (1/28) 8:22 AM CST (1/28)
Length of Visible Light 11h 02m
Length of Day
10h 05m
Full, 98% of the Moon is Illuminated
Jan 28
Full
Feb 3
Last Quarter
Feb 10
New
Feb 17
First Quarter
Feb 25
Full

Hourly Weather History & Observations

Time (CST) Temp. Windchill Dew Point Humidity Pressure Visibility Wind Dir Wind Speed Gust Speed Precip Events Conditions
12:15 AM 32.0 °F 26.4 °F 32.0 °F 100% 29.79 in 0.8 mi SW 5.8 mph - N/A   Mist
12:35 AM 32.0 °F 27.5 °F 32.0 °F 100% 29.78 in 0.5 mi SW 4.6 mph - N/A Fog Light Freezing Fog
12:55 AM 32.0 °F 27.5 °F 32.0 °F 100% 29.77 in 1.0 mi SW 4.6 mph - N/A   Mist
1:15 AM 32.0 °F - 32.0 °F 100% 29.77 in 1.5 mi Calm Calm - N/A   Mist
1:35 AM 32.0 °F - 32.0 °F 100% 29.79 in 0.8 mi Calm Calm - N/A   Mist
1:55 AM 32.0 °F - 32.0 °F 100% 29.78 in 0.5 mi Calm Calm - N/A Fog Fog
2:15 AM 32.0 °F - 32.0 °F 100% 29.78 in 0.2 mi Calm Calm - N/A Fog Fog
2:35 AM 30.2 °F 22.6 °F 30.2 °F 100% 29.79 in 0.2 mi SW 8.1 mph - N/A Fog Light Freezing Fog
3:15 AM 30.2 °F 25.4 °F 30.2 °F 100% 29.78 in 0.2 mi SW 4.6 mph - N/A Fog Light Freezing Fog
3:35 AM 32.0 °F 27.5 °F 32.0 °F 100% 29.77 in 0.2 mi SW 4.6 mph - N/A Fog Light Freezing Fog
3:55 AM 30.2 °F 26.7 °F 30.2 °F 100% 29.76 in 0.2 mi SSW 3.5 mph - N/A Fog Light Freezing Fog
4:15 AM 30.2 °F - 30.2 °F 100% 29.75 in 0.2 mi Calm Calm - N/A Fog Light Freezing Fog
4:35 AM 30.2 °F 26.7 °F 30.2 °F 100% 29.75 in 0.2 mi SW 3.5 mph - N/A Fog Light Freezing Fog
4:55 AM 30.2 °F 26.7 °F 30.2 °F 100% 29.75 in 0.2 mi SW 3.5 mph - N/A Fog Light Freezing Fog
5:15 AM 28.4 °F 24.6 °F 28.4 °F 100% 29.74 in 0.2 mi SW 3.5 mph - N/A Fog Light Freezing Fog
6:15 AM 30.2 °F 24.3 °F 30.2 °F 100% 29.74 in 0.2 mi WSW 5.8 mph - N/A Fog Light Freezing Fog
6:35 AM 28.4 °F 23.3 °F 28.4 °F 100% 29.73 in 0.2 mi WSW 4.6 mph - N/A Fog Light Freezing Fog
6:55 AM 30.2 °F 24.3 °F 30.2 °F 100% 29.73 in 0.2 mi SSW 5.8 mph - N/A Fog Light Freezing Fog
7:15 AM 30.2 °F 22.6 °F 30.2 °F 100% 29.73 in 2.0 mi South 8.1 mph - N/A   Clear
7:35 AM 30.2 °F 23.4 °F 30.2 °F 100% 29.73 in 2.0 mi South 6.9 mph - N/A   Clear
7:55 AM 32.0 °F 25.6 °F 32.0 °F 100% 29.71 in 1.8 mi South 6.9 mph - N/A   Mist
8:15 AM 32.0 °F 28.7 °F 32.0 °F 100% 29.72 in 1.2 mi SSW 3.5 mph - N/A   Mist
8:35 AM 33.8 °F 27.0 °F 33.8 °F 100% 29.71 in 1.2 mi South 8.1 mph - N/A   Mist
8:55 AM 35.6 °F 29.2 °F 35.6 °F 100% 29.71 in 0.8 mi SSE 8.1 mph - N/A   Overcast
9:15 AM 37.4 °F 30.8 °F 37.4 °F 100% 29.70 in 0.2 mi SSE 9.2 mph - N/A Fog Fog
9:35 AM 37.4 °F 29.8 °F 37.4 °F 100% 29.69 in 0.2 mi SSE 11.5 mph - N/A Snow Light Snow
9:55 AM 37.4 °F 30.3 °F 37.4 °F 100% 29.68 in 0.2 mi SSE 10.4 mph - N/A Fog Fog
10:15 AM 37.4 °F 30.3 °F 37.4 °F 100% 29.68 in 0.2 mi SSE 10.4 mph - N/A Snow Light Snow
10:35 AM 37.4 °F 30.8 °F 37.4 °F 100% 29.68 in 0.2 mi South 9.2 mph - N/A Snow Light Snow
10:55 AM 39.2 °F 32.0 °F 39.2 °F 100% 29.67 in 0.2 mi South 11.5 mph - N/A Fog Fog
11:15 AM 39.2 °F 31.6 °F 39.2 °F 100% 29.66 in 0.8 mi SSE 12.7 mph - N/A   Overcast
11:35 AM 41.0 °F 35.2 °F 41.0 °F 100% 29.65 in 2.0 mi SSE 9.2 mph - N/A   Overcast
11:55 AM 41.0 °F 35.2 °F 41.0 °F 100% 29.64 in 5.0 mi SSE 9.2 mph - N/A   Mostly Cloudy
12:15 PM 42.8 °F 37.0 °F 42.8 °F 100% 29.62 in 7.0 mi SSE 10.4 mph - N/A   Scattered Clouds
12:35 PM 44.6 °F 40.2 °F 42.8 °F 93% 29.61 in 10.0 mi SSE 8.1 mph - N/A   Clear
12:55 PM 48.2 °F - 42.8 °F 82% 29.60 in 10.0 mi South 9.2 mph - N/A   Clear
1:15 PM 50.0 °F - 42.8 °F 76% 29.59 in 10.0 mi South 11.5 mph - N/A   Clear
1:35 PM 51.8 °F - 42.8 °F 71% 29.57 in 10.0 mi SSE 8.1 mph - N/A   Clear
1:55 PM 53.6 °F - 42.8 °F 67% 29.56 in 10.0 mi SE 10.4 mph - N/A   Clear
2:15 PM 55.4 °F - 42.8 °F 63% 29.55 in 10.0 mi SSE 10.4 mph - N/A   Clear
2:35 PM 55.4 °F - 41.0 °F 58% 29.55 in 10.0 mi SSE 10.4 mph - N/A   Clear
2:55 PM 59.0 °F - 41.0 °F 51% 29.53 in 10.0 mi SSE 8.1 mph - N/A   Clear
3:15 PM 60.8 °F - 42.8 °F 52% 29.53 in 10.0 mi SSE 9.2 mph - N/A   Clear
3:35 PM 62.6 °F - 41.0 °F 45% 29.53 in 10.0 mi SSE 10.4 mph - N/A   Clear
3:55 PM 62.6 °F - 41.0 °F 45% 29.52 in 10.0 mi SE 11.5 mph - N/A   Clear
4:15 PM 62.6 °F - 42.8 °F 48% 29.52 in 10.0 mi East 9.2 mph - N/A   Clear
4:35 PM 60.8 °F - 42.8 °F 52% 29.51 in 10.0 mi East 8.1 mph - N/A   Clear
5:15 PM 57.2 °F - 42.8 °F 59% 29.49 in 10.0 mi East 9.2 mph - N/A   Clear
5:35 PM 55.4 °F - 42.8 °F 63% 29.49 in 10.0 mi ENE 10.4 mph - N/A   Scattered Clouds
5:55 PM 51.8 °F - 42.8 °F 71% 29.49 in 10.0 mi ENE 13.8 mph - N/A   Overcast
6:15 PM 50.0 °F - 41.0 °F 71% 29.49 in 10.0 mi NE 13.8 mph 18.4 mph N/A   Mostly Cloudy
6:35 PM 42.8 °F 35.1 °F 41.0 °F 93% 29.51 in 10.0 mi NNE 16.1 mph 23.0 mph N/A   Mostly Cloudy
6:55 PM 39.2 °F 29.0 °F 39.2 °F 100% 29.57 in 5.0 mi North 21.9 mph 28.8 mph N/A   Overcast
7:15 PM 37.4 °F 26.6 °F 37.4 °F 100% 29.57 in 2.5 mi North 21.9 mph 25.3 mph N/A   Overcast
7:35 PM 37.4 °F 27.2 °F 37.4 °F 100% 29.59 in 0.8 mi North 19.6 mph 29.9 mph N/A   Overcast
7:55 PM 35.6 °F 25.5 °F 35.6 °F 100% 29.62 in 0.8 mi NNW 17.3 mph 21.9 mph N/A Rain Light Rain
8:15 PM 35.6 °F 26.2 °F 35.6 °F 100% 29.63 in 0.8 mi NNW 15.0 mph 24.2 mph N/A Rain Light Rain
8:35 PM 37.4 °F 27.2 °F 37.4 °F 100% 29.64 in 1.8 mi NNW 19.6 mph 23.0 mph N/A   Overcast
8:55 PM 37.4 °F 28.9 °F 37.4 °F 100% 29.65 in 1.8 mi NNW 13.8 mph - N/A   Light Drizzle
9:15 PM 35.6 °F 25.5 °F 35.6 °F 100% 29.64 in 4.0 mi NNW 17.3 mph 26.5 mph N/A   Overcast
9:35 PM 35.6 °F 26.2 °F 35.6 °F 100% 29.66 in 2.5 mi NNW 15.0 mph 21.9 mph N/A   Overcast
9:55 PM 35.6 °F 24.2 °F 35.6 °F 100% 29.68 in 7.0 mi NNW 21.9 mph 27.6 mph N/A   Overcast
10:15 PM 35.6 °F 25.9 °F 35.6 °F 100% 29.69 in 7.0 mi NNW 16.1 mph - N/A   Overcast
10:35 PM 33.8 °F 22.8 °F 33.8 °F 100% 29.68 in 7.0 mi NNW 18.4 mph 27.6 mph N/A   Overcast
10:55 PM 33.8 °F 22.8 °F 33.8 °F 100% 29.68 in 10.0 mi NNW 18.4 mph 27.6 mph N/A   Overcast
11:15 PM 33.8 °F 22.8 °F 33.8 °F 100% 29.68 in 10.0 mi NNW 18.4 mph 25.3 mph N/A   Overcast
11:35 PM 33.8 °F 23.9 °F 33.8 °F 100% 29.70 in 10.0 mi NNW 15.0 mph - N/A   Overcast
11:55 PM 33.8 °F 23.5 °F 33.8 °F 100% 29.69 in 10.0 mi North 16.1 mph 21.9 mph N/A   Overcast